This is the latest recevied weather packets stored in our database for station/object HB9FHL-13. If no packets are shown the sender has not sent any weather packets the latest 10 day(s).
| Time | Temp. | Humidity | Pressure | Rain* | Wind** | Luminosity | Snow |
|---|---|---|---|---|---|---|---|
| 1777947000 | 10.56° C | - | 1010.5 hPa | 0 mm | - | - | - |
| 1777946700 | 11.11° C | - | 1008 hPa | 0 mm | - | - | - |
| 1777946399 | 11.67° C | - | 1011.5 hPa | 0 mm | - | - | - |
| 1777946099 | 11.11° C | - | 1007.6 hPa | 0 mm | - | - | - |
| 1777945799 | 10.56° C | - | 1010.7 hPa | 0 mm | - | - | - |
| 1777945498 | 11.11° C | - | 1011.4 hPa | 0 mm | - | - | - |
| 1777945197 | 11.67° C | - | 1010.5 hPa | 0 mm | - | - | - |
| 1777944897 | 10.56° C | - | 1007 hPa | 0 mm | - | - | - |
| 1777944597 | 11.67° C | - | 1009.3 hPa | 0 mm | - | - | - |
| 1777944296 | 10.56° C | - | 1011.4 hPa | 0 mm | - | - | - |
| 1777943996 | 11.11° C | - | 1010.1 hPa | 0 mm | - | - | - |
| 1777943695 | 10.56° C | - | 1008 hPa | 0 mm | - | - | - |
| 1777943395 | 10.56° C | - | 1012.8 hPa | 0 mm | - | - | - |
| 1777943094 | 11.67° C | - | 1012.9 hPa | 0 mm | - | - | - |
| 1777942794 | 11.11° C | - | 1008.7 hPa | 0 mm | - | - | - |
| 1777942493 | 11.67° C | - | 1013.3 hPa | 0 mm | - | - | - |
| 1777942193 | 11.67° C | - | 1013.5 hPa | 0 mm | - | - | - |
| 1777941892 | 11.11° C | - | 1011.1 hPa | 0 mm | - | - | - |
| 1777941592 | 10.56° C | - | 1015.5 hPa | 0 mm | - | - | - |
| 1777941291 | 11.11° C | - | 1010.7 hPa | 0 mm | - | - | - |
| 1777940991 | 11.11° C | - | 1012.3 hPa | 0 mm | - | - | - |
| 1777940690 | 11.11° C | - | 1013.3 hPa | 0 mm | - | - | - |
| 1777940390 | 11.11° C | - | 1011.1 hPa | 0 mm | - | - | - |
| 1777940089 | 11.11° C | - | 1011.1 hPa | 0 mm | - | - | - |
| 1777939789 | 11.11° C | - | 1012.2 hPa | 0 mm | - | - | - |
* Rain since midnight (hover to see other rain measurements)
** Current wind speed in m/s (hover to see current wind gust speed)